Location: Atlanta
(33.7490°N, 84.3880°W)
Time: 07:04:13
(UTC-04:00)

Daily predictions for brighter satellites

Satellite Brightness Start Highest point End
(mag) Time Altitude Azimuth Time Altitude Azimuth Time Altitude Azimuth
CSL-04 Rocket 4.2 19:12:46 10° S 19:18:06 66° WSW 19:23:24 10° NNW
Cosmos 1624 Rocket 4.0 19:14:54 10° N 19:20:06 64° ENE 19:25:17 10° SSE
MTI 3.7 19:18:31 10° NNE 19:21:44 86° E 19:24:55 10° S
GP-B 3.4 19:18:07 10° NNE 19:22:24 47° E 19:26:40 10° SSE
Cosmos 1371 Rocket 4.1 19:17:41 10° NNW 19:23:04 84° ENE 19:28:25 10° SSE
Cosmos 1315 Rocket 4.3 19:20:28 10° NNE 19:23:13 17° ENE 19:25:57 10° ESE
Cosmos 2151 3.7 19:20:43 10° NNE 19:24:30 30° E 19:28:15 10° SE
SL-08 R/B 4.5 19:20:25 10° S 19:26:34 71° E 19:32:40 10° N
CZ-4C R/B 3.1 19:25:01 10° SSE 19:28:55 23° ESE 19:33:05 10° ENE
APEX 4.2 19:28:49 10° SSE 19:31:33 21° ESE 19:33:58 10° ENE
FALCON 9 R/B 2.2 19:30:25 10° W 19:32:22 26° SSW 19:35:10 10° SE
CORIOLIS 4.4 19:27:33 10° S 19:32:55 77° WSW 19:38:20 10° NNW
SKYMED 2 3.5 19:29:03 10° NNE 19:33:22 67° E 19:37:41 10° S
EO 1 Del DPAF 3.3 19:30:12 10° NNE 19:34:03 88° WNW 19:37:53 10° SSW
FENGYUN 3A 4.4 19:30:14 10° SE 19:34:55 31° ENE 19:39:38 10° N
Meteor 1-11 4.2 19:31:32 10° N 19:37:19 78° E 19:43:00 10° SSE
Cosmos 1743 Rocket 3.6 19:33:30 10° N 19:37:51 61° E 19:42:13 10° SSE
Delta 2 Rocket 3.0 19:34:07 10° W 19:37:58 75° N 19:41:01 13° ENE
Cosmos 2322 4.4 19:34:10 10° N 19:39:16 32° ENE 19:44:18 10° SE
Cosmos 158 Rocket 4.4 19:35:22 10° SSE 19:39:56 38° E 19:44:38 10° NE
Cosmos 1842 Rocket 3.6 19:37:11 10° S 19:41:39 85° E 19:46:07 10° N
RESURS DK-1 3.2 19:39:16 10° N 19:42:55 29° ENE 19:46:31 10° SE
Cosmos 2221 3.1 19:40:23 10° SSE 19:44:17 35° E 19:48:14 10° NNE
ALOS 2.7 19:41:17 10° SE 19:45:34 38° ENE 19:49:54 10° N
Cosmos 2058 2.9 19:44:02 10° N 19:48:09 59° E 19:52:14 10° SSE
MONITOR-E 4.0 19:48:01 10° SSE 19:51:04 80° E 19:54:09 10° N
ERS-2 3.7 19:48:27 10° S 19:51:56 39° W 19:55:25 10° NNW
Atlas Centaur 2 2.2 19:48:56 10° W 19:53:28 59° S 19:58:05 16° ESE
ASTRO E2 2.9 19:51:16 10° W 19:55:13 62° S 19:57:53 20° ESE
Cosmos 921 Rocket 3.5 19:52:56 10° N 19:57:07 39° ENE 20:01:11 10° SE
Cosmos 2219 Rocket 3.7 19:54:46 10° NNE 19:57:56 15° NE 19:58:26 15° ENE
Cosmos 1500 Rocket 3.4 19:55:09 10° N 19:59:30 83° E 20:03:48 10° S
Cosmos 1703 3.2 19:55:57 10° N 19:59:53 89° E 20:03:47 10° S
SPOT 3 Rocket 3.5 19:57:46 10° SSE 20:02:57 88° ENE 20:08:11 10° NNW
Cosmos 1269 Rocket 4.2 19:59:09 10° S 20:04:09 47° ESE 20:09:12 10° NNE
Cosmos 1726 2.6 20:04:25 10° SSE 20:07:49 35° E 20:11:13 10° NNE
SL-16 R/B 3.8 20:06:15 10° NW 20:11:27 37° WSW 20:16:36 10° S
OAO 1 Rocket 4.4 20:06:14 10° WSW 20:11:33 89° S 20:14:32 27° E
Cosmos 1908 3.3 20:07:47 10° S 20:11:42 78° W 20:15:37 10° N
USA 267 3.3 20:09:11 14° NE 20:14:50 57° SE 20:21:14 10° SSW
CZ-4 R/B 4.3 20:12:24 10° SW 20:15:36 21° W 20:18:47 10° NW
Cosmos 1400 Rocket 4.1 20:12:31 10° NNW 20:16:20 42° W 20:20:04 10° SSW
Cosmos 2237 4.3 20:11:16 10° NNW 20:16:54 55° ENE 20:22:06 12° SE
Cosmos 2098 Rocket 3.1 20:13:56 10° S 20:17:52 60° E 20:22:55 10° NNE
H-2A R/B 3.1 20:19:23 37° ESE 20:20:04 41° ENE 20:23:45 10° N
Cosmos 44 2.9 20:16:27 10° SSW 20:20:51 87° WNW 20:24:23 15° NNE
COSMO-SKYMED 1 4.5 20:17:29 10° N 20:21:19 31° WNW 20:25:08 10° SW
ATLAS 2A CENTAUR R/B 2.8 20:21:05 10° S 20:21:45 14° S 20:21:45 14° S
Cosmos 1452 Rocket 3.5 20:20:26 10° NNW 20:25:43 85° WSW 20:30:58 10° SSE
Cosmos 2237 Rocket 4.1 20:25:57 10° NNE 20:27:17 13° NE 20:27:17 13° NE
NOAA 12 4.4 20:23:57 10° S 20:29:12 68° WSW 20:34:30 10° NNW
Cosmos 2227 Rocket 3.8 20:28:21 10° SSE 20:30:08 18° SE 20:30:08 18° SE
SL-24 R/B - RUBIN 2 3.5 20:30:15 10° NNW 20:34:58 85° WSW 20:37:01 31° SSE
Cosmos 1805 Rocket 3.4 20:33:35 10° N 20:37:58 68° E 20:39:29 39° SSE
Cosmos 1821 Rocket 3.9 20:33:18 10° S 20:39:25 85° W 20:45:41 10° N
Cosmos 44 Rocket 3.7 20:35:35 10° SW 20:40:13 57° WNW 20:43:51 16° NNE
Cosmos 1000 Rocket 4.4 20:38:13 10° N 20:44:27 86° W 20:50:37 10° S
Cosmos 1934 Rocket 3.9 20:38:42 10° S 20:45:01 79° E 20:51:24 10° N
DELTA 2 R/B (1) 3.6 20:41:44 10° WNW 20:47:17 65° NNE 20:48:17 54° ENE
Hubble Space Telescope 3.1 20:46:59 10° SSW 20:48:09 14° S 20:48:09 14° S
Centaur AC-112 3.7 20:45:18 10° WSW 20:49:56 27° SSW 20:49:56 27° SSW
Cosmos 2360 Rocket 3.3 20:47:36 10° NW 20:52:55 43° WSW 20:58:14 10° S
COSMOS 2428 2.5 20:47:30 10° NNW 20:53:12 76° ENE 20:54:29 54° SE
Cosmos 2333 Rocket 3.1 20:51:11 10° N 20:54:58 33° NNE 20:54:58 33° NNE
Cosmos 2219 3.8 20:52:18 10° SW 20:57:56 58° WNW 21:03:37 10° NNE
Cosmos 2297 Rocket 4.4 21:05:24 10° S 21:05:48 12° S 21:05:48 12° S
Cosmos 2123 Rocket 3.9 21:06:37 10° N 21:12:52 89° ENE 21:14:34 52° S
Cosmos 1605 Rocket 3.8 21:07:30 10° S 21:13:38 90° WNW 21:19:45 10° N
CZ-4C R/B 3.3 21:12:13 10° WSW 21:16:58 38° NW 21:20:08 21° N
MOS 1-B Rocket 4.0 21:19:11 61° N 21:19:11 61° N 21:24:00 10° NNW
Cosmos 2219 Rocket 3.3 21:36:48 10° NNW 21:40:12 37° NW 21:40:12 37° NW
Atlas Centaur 2 3.5 21:37:19 10° W 21:40:43 33° SW 21:40:43 33° SW
USA 267 4.3 21:56:34 35° NNW 21:57:36 37° NW 22:03:29 10° W
